CZ-6A DEB

Satellite information

Favourite Embed

Satellite Type and Status

DEBRISIN ORBIT

Key statistics

Satellite CZ-6A DEB at a glance.

Uptime

494

Days in orbit

Revolutions

≈ 14.1

Per day

Orbit

LEO

Low Earth Orbit

Inclination

88.8

Latest

Satellite identification and parameters

Extended collection of information and parameters for CZ-6A DEB.

Object identification

Identified? True

Debris? True

Object name: CZ-6A DEB

International designator: 2024-140LS

Object number (NORAD): 60967

Object ID (CCSDS): 60967

Country: PEOPLES REPUBLIC OF CHINA (PRC)

Current information (Y/N): Y

RCS size: SMALL

Orbital parameters

Period: 102.181 minutes

Inclination: 88.8186 deg

SMA: 7240.01 km

Apoapsis: 951.016 km

Periapsis: 772.733 km

RAAN: 286.697 deg

Eccentricy: 0.01231235

Argument of periapsis: 137.2953 deg

Mean anomaly: 223.7882 deg

Mean motion: 14.09269507 rev/day

Mean motion (dot): 0.00002763 rev/day2

B* drag term: 0.001472783 1/REarth

Two-line elements (TLE)

Creation date: Dec. 12, 2025, 10:14 a.m.

Reference frame: TEME

Reference center: EARTH

Epoch: Dec. 12, 2025, 7:08 a.m. UTC

TLE line 0: 0 CZ-6A DEB

TLE line 1: 1 60967U 24140LS 25346.29729931 .00002763 00000-0 14728-2 0 9993

TLE line 2: 2 60967 88.8186 286.6970 0123123 137.2953 223.7882 14.09269507 67489

Live tracking on map

Real-time ground track for satellite CZ-6A DEB.

In-orbit conjunctions

A list of the most updated potential collisions computed for object CZ-6A DEB.

Target Orbit TCA Probability of collision Miss distance Type
COSMOS 1275 DEB LEO 2025-11-03 11:26:51 0.000148854 388.0 (m) DEBRIS
CZ-6A DEB SSO 2025-05-06 11:54:55 0.0001020223 361.0 (m) DEBRIS
FENGYUN 1C DEB SSO 2025-04-08 16:36:17 0.0001220916 301.0 (m) DEBRIS
FENGYUN 1C DEB SSO 2024-11-18 17:21:01 0.0001614511 468.0 (m) DEBRIS
NOAA 16 DEB SSO 2024-11-09 11:14:32 0.0004662022 125.0 (m) DEBRIS

Associated space launch

18 Low Earth Orbit communication satellites with Ku, Q and V band payloads for the G60 constellation operated by Shanghai Spacecom Satellite Technology (SSST) with funding backed by the Shanghai local government. Initial constellation will consist of 1296 satellites by 2027 with long term plans to expand it to 12000 satellites.

CZ-6A DEB was lifted into orbit during the mission ‘Long March 6A | G60 Polar Group 01’, on board a Long March 6A space rocket.

The launch took place on Aug. 6, 2024, 6:42 a.m. from Launch Complex 9A.

For more information about the launch, click the button.

Launch to space Long March 6A | G60 Polar Group 01
Long March 6A | G60 Polar Group 01

Agency: N/A

Status: Launch Successful

Launch date: Aug. 6, 2024, 6:42 a.m. UTC

Rocket: Long March 6A

Launch pad: Launch Complex 9A

Location: Taiyuan Satellite Launch Center, People's Republic of China

...

Latest news about this satellite

News about space launch
Brightness of first Chinese broadband constellation satellites alarms astronomers

The first satellites of a Chinese broadband constellation are significantly brighter than those of Western systems, posing a new challenge for astronomers.

News about space launch
Chinese rocket stage breaks up into cloud of more than 700 pieces of space debris

HELSINKI — A Chinese Long March 6A rocket’s upper stage has fragmented into a cloud of over 700 pieces of space debris, adding to concerns about long-term orbital safety. China […]

News about space launch
China's Thousand Sails Megaconstellation Kicks Off with Dangerous Debris Field

China's Thousand Sails Megaconstellation Kicks Off with Dangerous Debris Field


Newsletter sign-up

Weekly statistics, charts and insights to help you stay on top of the space industry.